AEHF-1 (USA 214)

Last updated on Sun Jun 21 2026 00:03:04 GMT+0000 (Coordinated Universal Time)

1 36868U 10039A 26171.32669471 .00000140 00000+0 00000+0 0 9992 2 36868 8.2280 68.0128 0004022 8.8347 339.2923 1.00276368 53682
UTC large
Height (km)
Speed (km/s)
/
Latitude / Longitude
Inclination (degrees)
Orbital Period (minutes)
Azimuth
Elevation
Range (km)
Doppler Factor

Next 0 passes for location: London (51.5072 / 0.1276)

No passes found over London.
AEHF-1 (USA 214)